Weather History for Plymouth, NH

Change the Weather History Date:

Friday, September 28, 2012

  Actual Average (KLCI) Record (KLCI)
Temperature  
Mean Temperature 42 °F -  
Max Temperature 50 °F 66 °F 82 °F (2014)
Min Temperature 34 °F 45 °F 34 °F (1989)
Degree Days  
Heating Degree Days 23    
Moisture  
Dew Point 43 °F    
Average Humidity 99    
Maximum Humidity 100    
Minimum Humidity 95    
Precipitation  
Precipitation 0.33 in - - ()
Sea Level Pressure  
Sea Level Pressure 30.19 in    
Wind  
Wind Speed 0 mph (East)    
Max Wind Speed 4 mph    
Max Gust Speed -    
Visibility 6 miles    
Events Fog , Rain    
Averages and records for this station are not official NWS values.
T = Trace of Precipitation, MM = Missing Value Source: NWS Daily Summary

Daily Weather History Graph

Daily Weather History Graph

Search for Another Location

Airport:

Trip Planner

Search our weather history database for the weather conditions in past years. The results will help you decide how hot, cold, wet, or windy it might be!

Date:

Astronomy

Sep. 28, 2012 Rise Set
Actual Time 6:41 AM EDT 6:32 PM EDT
Civil Twilight 6:12 AM EDT 7:01 PM EDT
Nautical Twilight 5:39 AM EDT 7:34 PM EDT
Astronomical Twilight 5:05 AM EDT 8:08 PM EDT
Moon 5:33 PM EDT (9/28) 5:07 AM EDT (9/28)
Length of Visible Light 12h 48m
Length of Day
11h 50m
Waxing Gibbous, 98% of the Moon is Illuminated
Sep 28
Waxing Gibbous
Sep 29
Full
Oct 8
Last Quarter
Oct 15
New
Oct 21
First Quarter

Hourly Weather History & Observations

Time (EDT) Temp. Dew Point Humidity Pressure Visibility Wind Dir Wind Speed Gust Speed Precip Events Conditions
12:15 AM 37.4 °F 37.4 °F 100% 30.27 in 5.0 mi Calm Calm - N/A   Clear
12:35 AM 36.5 °F 36.5 °F 100% 30.27 in 5.0 mi Calm Calm - N/A   Clear
12:55 AM 36.1 °F 36.1 °F 100% 30.27 in 7.0 mi Calm Calm - N/A   Clear
1:15 AM 36.5 °F 36.5 °F 100% 30.28 in 7.0 mi Calm Calm - N/A   Clear
1:35 AM 35.8 °F 35.8 °F 100% 30.28 in 4.0 mi Calm Calm - N/A   Clear
1:55 AM 35.1 °F 35.1 °F 100% 30.28 in 3.0 mi Calm Calm - N/A   Clear
2:15 AM 34.7 °F 34.7 °F 100% 30.28 in 2.5 mi Calm Calm - N/A   Clear
2:35 AM 35.1 °F 35.1 °F 100% 30.27 in 0.2 mi Calm Calm - N/A Fog Fog
2:55 AM 35.1 °F 35.1 °F 100% 30.27 in 0.8 mi Calm Calm - N/A   Overcast
3:15 AM 34.9 °F 34.9 °F 100% 30.27 in 1.2 mi Calm Calm - N/A   Mostly Cloudy
3:35 AM 35.2 °F 35.2 °F 100% 30.27 in 0.2 mi Calm Calm - N/A Fog Fog
3:55 AM 35.1 °F 35.1 °F 100% 30.27 in 0.2 mi Calm Calm - N/A Fog Fog
4:15 AM 35.6 °F 35.6 °F 100% 30.27 in 0.2 mi Calm Calm - N/A Fog Fog
4:35 AM 35.8 °F 35.8 °F 100% 30.27 in 0.5 mi Calm Calm - N/A Fog Fog
5:15 AM 36.3 °F 36.3 °F 100% 30.27 in 0.2 mi Calm Calm - N/A Fog Fog
5:35 AM 36.3 °F 36.3 °F 100% 30.27 in 0.2 mi Calm Calm - N/A Fog Fog
6:15 AM 36.5 °F 36.5 °F 100% 30.26 in 0.2 mi Calm Calm - N/A Fog Fog
6:35 AM 36.5 °F 36.5 °F 100% 30.26 in 0.2 mi Calm Calm - N/A Fog Fog
6:55 AM 36.5 °F 36.5 °F 100% 30.25 in 0.2 mi Calm Calm - N/A Fog Fog
7:15 AM 36.9 °F 36.9 °F 100% 30.25 in 0.8 mi Calm Calm - N/A   Overcast
7:35 AM 37.6 °F 37.6 °F 100% 30.26 in 10.0 mi Calm Calm - N/A   Overcast
7:55 AM 38.3 °F 38.3 °F 100% 30.26 in 10.0 mi Calm Calm - N/A   Overcast
8:15 AM 38.5 °F 38.5 °F 100% 30.26 in 10.0 mi Calm Calm - N/A   Overcast
8:35 AM 39.2 °F 39.2 °F 100% 30.26 in 10.0 mi Calm Calm - N/A   Overcast
8:55 AM 39.6 °F 39.6 °F 100% 30.26 in 10.0 mi Calm Calm - N/A   Overcast
9:15 AM 40.1 °F 40.1 °F 100% 30.24 in 10.0 mi Calm Calm - N/A   Overcast
9:35 AM 40.8 °F 40.8 °F 100% 30.25 in 10.0 mi Calm Calm - N/A   Overcast
9:55 AM 41.2 °F 41.2 °F 100% 30.25 in 10.0 mi Calm Calm - N/A   Overcast
10:15 AM 41.2 °F 41.2 °F 100% 30.25 in 10.0 mi Calm Calm - N/A Rain Light Rain
10:35 AM 42.3 °F 42.3 °F 100% 30.25 in 7.0 mi Calm Calm - N/A Rain Rain
11:15 AM 43.2 °F 43.2 °F 100% 30.24 in 7.0 mi Calm Calm - 0.01 in Rain Light Rain
11:35 AM 43.3 °F 43.3 °F 100% 30.23 in 7.0 mi Calm Calm - 0.03 in Rain Rain
11:55 AM 44.2 °F 44.2 °F 100% 30.23 in 7.0 mi Calm Calm - 0.04 in Rain Light Rain
12:15 PM 45.0 °F 45.0 °F 100% 30.22 in 10.0 mi Calm Calm - N/A Rain Light Rain
12:35 PM 45.5 °F 45.3 °F 99% 30.22 in 5.0 mi Calm Calm - 0.02 in Rain Rain
12:55 PM 45.9 °F 45.7 °F 99% 30.21 in 4.0 mi Calm Calm - 0.05 in Rain Rain
1:15 PM 46.4 °F 46.2 °F 99% 30.20 in 5.0 mi Calm Calm - 0.04 in Rain Rain
1:35 PM 47.3 °F 47.1 °F 99% 30.19 in 7.0 mi East 3.5 mph - 0.06 in Rain Light Rain
2:15 PM 47.3 °F 46.9 °F 99% 30.17 in 7.0 mi Calm Calm - 0.02 in Rain Rain
2:35 PM 47.7 °F 47.5 °F 99% 30.17 in 4.0 mi Calm Calm - 0.05 in Rain Rain
2:55 PM 47.8 °F 47.5 °F 99% 30.16 in 7.0 mi East 3.5 mph - 0.08 in Rain Light Rain
3:15 PM 48.4 °F 48.0 °F 99% 30.15 in 7.0 mi Calm Calm - 0.02 in Rain Rain
3:35 PM 48.6 °F 48.2 °F 99% 30.15 in 10.0 mi Calm Calm - 0.03 in Rain Light Rain
3:55 PM 49.1 °F 48.4 °F 97% 30.15 in 5.0 mi Calm Calm - 0.04 in Rain Light Rain
4:15 PM 49.3 °F 48.6 °F 97% 30.14 in 5.0 mi Calm Calm - 0.01 in Rain Rain
4:35 PM 49.5 °F 48.6 °F 97% 30.14 in 5.0 mi Calm Calm - 0.02 in Rain Rain
4:55 PM 49.5 °F 48.4 °F 96% 30.14 in 4.0 mi Calm Calm - 0.03 in   Drizzle
5:15 PM 50.0 °F 48.9 °F 96% 30.13 in 3.0 mi Calm Calm - 0.02 in   Drizzle
5:35 PM 49.6 °F 48.6 °F 96% 30.13 in 5.0 mi Calm Calm - 0.02 in   Light Drizzle
5:55 PM 49.6 °F 48.6 °F 96% 30.13 in 5.0 mi Calm Calm - 0.02 in Rain Rain
6:15 PM 50.0 °F 48.7 °F 95% 30.12 in 5.0 mi Calm Calm - N/A   Light Drizzle
6:35 PM 50.0 °F 49.1 °F 97% 30.12 in 7.0 mi Calm Calm - N/A   Overcast
6:55 PM 50.0 °F 49.1 °F 97% 30.12 in 7.0 mi Calm Calm - N/A Rain Rain
7:15 PM 50.0 °F 48.7 °F 95% 30.12 in 10.0 mi Calm Calm - N/A   Overcast
7:35 PM 49.6 °F 48.7 °F 97% 30.11 in 5.0 mi Calm Calm - N/A Rain Light Rain
7:55 PM 49.6 °F 48.7 °F 97% 30.11 in 5.0 mi Calm Calm - N/A   Drizzle
8:15 PM 49.5 °F 48.7 °F 97% 30.10 in 7.0 mi Calm Calm - 0.01 in   Light Drizzle
8:35 PM 49.5 °F 48.7 °F 97% 30.10 in 10.0 mi Calm Calm - 0.01 in   Overcast
8:55 PM 49.5 °F 48.7 °F 97% 30.10 in 4.0 mi Calm Calm - 0.01 in   Overcast
9:15 PM 49.5 °F 48.7 °F 97% 30.09 in 5.0 mi Calm Calm - N/A   Overcast
9:35 PM 49.3 °F 48.6 °F 97% 30.09 in 5.0 mi Calm Calm - N/A   Overcast
9:55 PM 49.5 °F 48.7 °F 97% 30.09 in 5.0 mi Calm Calm - N/A   Overcast
10:15 PM 49.5 °F 48.9 °F 98% 30.09 in 10.0 mi Calm Calm - N/A   Overcast
10:35 PM 49.5 °F 48.9 °F 98% 30.08 in 10.0 mi Calm Calm - N/A   Overcast
10:55 PM 49.6 °F 49.1 °F 98% 30.08 in 10.0 mi Calm Calm - N/A   Overcast
11:15 PM 49.6 °F 49.1 °F 98% 30.08 in 10.0 mi Calm Calm - N/A   Overcast
11:35 PM 49.5 °F 49.1 °F 99% 30.07 in 10.0 mi Calm Calm - N/A   Overcast
11:55 PM 49.5 °F 48.7 °F 97% 30.06 in 10.0 mi Calm Calm - N/A   Overcast